Flag for China Weather past 2 weeks in Hangzhou, Zhejiang, China

Now
72 °F

Clear.


Feels Like: 75 °F
Forecast: 62 / 80 °F
Wind: 3 mph from East

Location: Hangzhou Airport

Current Time: May 24, 2015 at 7:25:16 PM

Latest Report: May 24, 2015 at 7:00 PM


Visibility: 10 mi

Pressure: 29.77 "Hg

Humidity: 65%

Dew point: 59 °F

Location of HangzhouLocation

Historic Weather in Hangzhou — Graph

°F

Hangzhou temperature yesterday

Maximum temperature yesterday: 75 °F (at 11:30 AM)
Minimum temperature yesterday: 66 °F (at 4:30 AM)
Average temperature yesterday: 71 °F

Past Weeks' High & Low Weather Summary

 TemperatureHumidityPressure
High90 °F (May 13, 3:00 PM)89% (May 15, 5:00 PM)30.07 "Hg (May 15, 5:00 PM)
Low54 °F (May 12, 5:00 AM)18% (May 12, 3:30 PM)29.59 "Hg (May 18, 3:30 AM)
Average71 °F65%29.83 "Hg
* Reported May 9 6:00 PM — May 24 6:00 PM, Hangzhou, Weather by CustomWeather, © 2015

Note: Actual official high and low records may vary slightly from our data, if they occured in-between our weather recording intervals... More about our weather records

Advertising

Hangzhou weather history for previous 24 hours

 ConditionsComfort  
Time TempWeatherWind HumidityBarometerVisibility
6:00 PM
Sun, May 24
73 °FSunny.6 mph53%29.77 "Hg10 mi
5:30 PM75 °FSunny.6 mph54%29.77 "Hg10 mi
5:00 PM75 °FPassing clouds.6 mph50%29.77 "HgN/A
4:30 PM75 °FScattered clouds.6 mph54%29.77 "HgN/A
4:00 PM77 °FScattered clouds.3 mph51%29.77 "HgN/A
3:30 PM77 °FPartly sunny.3 mph54%29.77 "HgN/A
3:00 PM75 °FPartly sunny.3 mph57%29.77 "HgN/A
2:30 PM75 °FPartly sunny.6 mph57%29.77 "HgN/A
2:00 PM77 °FPartly sunny.3 mph54%29.77 "HgN/A
1:30 PM75 °FPartly sunny.6 mph57%29.77 "HgN/A
1:00 PM75 °FPartly sunny.6 mph61%29.77 "HgN/A
12:30 PM75 °FPartly sunny.6 mph61%29.77 "Hg5 mi
12:00 PM75 °FScattered clouds.6 mph61%29.80 "HgN/A
11:30 AM75 °FScattered clouds.6 mph65%29.80 "Hg5 mi
11:00 AM73 °FScattered clouds.3 mph69%29.80 "Hg4 mi
10:30 AM73 °FScattered clouds.3 mph65%29.80 "Hg4 mi
10:00 AM73 °FScattered clouds.6 mph69%29.80 "Hg3 mi
9:30 AM73 °FScattered clouds.6 mph69%29.80 "Hg3 mi
9:00 AM72 °FScattered clouds.6 mph73%29.80 "Hg2 mi
8:30 AM70 °FFog.3 mph78%29.80 "Hg2 mi
8:00 AM70 °FFog.3 mph78%29.80 "Hg2 mi
7:30 AM70 °FFog.3 mph78%29.80 "Hg2 mi
7:00 AM70 °FFog.3 mph78%29.80 "Hg2 mi
6:30 AM70 °FFog.3 mph78%29.80 "Hg2 mi
6:00 AM70 °FFog.3 mph78%29.77 "Hg2 mi
5:30 AM68 °FFog.3 mph83%29.77 "Hg2 mi
5:00 AM68 °FFog.3 mph83%29.77 "Hg2 mi
4:30 AM68 °FFog.6 mph83%29.77 "Hg2 mi
4:00 AM68 °FFog.6 mph83%29.77 "Hg2 mi
3:30 AM70 °FClear.6 mph78%29.77 "Hg4 mi
3:00 AM70 °FClear.3 mph78%29.77 "Hg4 mi
2:30 AM70 °FClear.6 mph78%29.77 "Hg4 mi
2:00 AM70 °FClear.3 mph78%29.77 "Hg4 mi
1:30 AM70 °FClear.3 mph78%29.77 "Hg4 mi
1:00 AM70 °FClear.3 mph78%29.77 "Hg4 mi
12:30 AM70 °FClear.1 mph78%29.77 "Hg4 mi
12:00 AM68 °FClear.3 mph83%29.77 "Hg4 mi
11:30 PM
Sat, May 23
70 °FClear.3 mph78%29.77 "Hg4 mi
11:00 PM70 °FClear.6 mph78%29.80 "Hg4 mi
10:30 PM70 °FClear.3 mph78%29.80 "Hg4 mi
10:00 PM70 °FClear.3 mph78%29.80 "Hg4 mi
9:30 PM70 °FClear.3 mph78%29.80 "Hg4 mi
9:00 PM70 °FFog.3 mph78%29.80 "Hg3 mi
8:30 PM70 °FFog.6 mph78%29.77 "Hg3 mi
8:00 PM70 °FClear.3 mph78%29.77 "Hg4 mi
7:30 PM72 °FClear.3 mph73%29.77 "Hg4 mi
7:00 PM72 °FClear.3 mph69%29.77 "Hg4 mi
Weather by CustomWeather, © 2015

See weather overviewHow to use our weather pages